TimeCST,TemperatureF,Dew PointF,Humidity,Sea Level PressureIn,VisibilityMPH,Wind Direction,Wind SpeedMPH,Gust SpeedMPH,PrecipitationIn,Events,Conditions,WindDirDegrees,DateUTC
12:53 AM,71.1,66.9,87,29.83,9.0,SSE,9.2,18.4,N/A,,Overcast,150,2013-01-29 06:53:00
1:53 AM,71.1,66.9,87,29.81,10.0,SE,11.5,-,N/A,,Overcast,140,2013-01-29 07:53:00
2:53 AM,71.1,66.9,87,29.80,10.0,SSE,10.4,-,N/A,,Overcast,160,2013-01-29 08:53:00
3:53 AM,71.1,66.9,87,29.79,10.0,SSE,9.2,-,N/A,,Overcast,150,2013-01-29 09:53:00
4:53 AM,70.0,66.9,90,29.77,9.0,SE,8.1,-,N/A,,Overcast,140,2013-01-29 10:53:00
5:13 AM,69.8,66.2,88,29.79,8.0,SE,10.4,-,N/A,,Overcast,140,2013-01-29 11:13:00
5:53 AM,70.0,66.9,90,29.75,7.0,SE,10.4,-,N/A,,Overcast,140,2013-01-29 11:53:00
6:19 AM,69.8,66.2,88,29.76,7.0,ESE,10.4,-,N/A,,Overcast,120,2013-01-29 12:19:00
6:44 AM,69.8,66.2,88,29.76,7.0,SE,10.4,-,N/A,,Overcast,130,2013-01-29 12:44:00
6:53 AM,69.1,66.9,93,29.74,7.0,SE,10.4,-,N/A,,Overcast,130,2013-01-29 12:53:00
7:23 AM,69.8,66.2,88,29.76,6.0,SE,6.9,-,N/A,,Overcast,140,2013-01-29 13:23:00
7:53 AM,69.1,66.9,93,29.73,7.0,SE,8.1,-,N/A,,Overcast,140,2013-01-29 13:53:00
8:22 AM,69.8,66.2,88,29.74,7.0,SE,8.1,-,N/A,,Overcast,140,2013-01-29 14:22:00
8:31 AM,69.8,66.2,88,29.73,7.0,SE,10.4,-,N/A,,Overcast,140,2013-01-29 14:31:00
8:38 AM,69.8,66.2,88,29.72,7.0,SE,11.5,-,N/A,,Overcast,140,2013-01-29 14:38:00
8:53 AM,70.0,66.9,90,29.70,8.0,SSE,8.1,-,N/A,,Overcast,150,2013-01-29 14:53:00
9:53 AM,73.0,66.0,79,29.70,9.0,South,18.4,24.2,N/A,,Overcast,180,2013-01-29 15:53:00
10:53 AM,75.9,66.0,71,29.70,9.0,South,15.0,23.0,0.00,Rain,Light Rain,180,2013-01-29 16:53:00
11:30 AM,77.0,64.4,65,29.70,9.0,South,17.3,24.2,0.00,Rain,Light Rain,190,2013-01-29 17:30:00
11:53 AM,78.1,64.9,64,29.66,9.0,South,12.7,23.0,0.00,Rain,Light Rain,190,2013-01-29 17:53:00
12:53 PM,80.1,64.0,58,29.60,9.0,South,12.7,-,0.00,,Clear,190,2013-01-29 18:53:00
1:53 PM,81.0,59.0,47,29.57,10.0,SSW,17.3,24.2,N/A,,Clear,200,2013-01-29 19:53:00
2:53 PM,82.0,55.0,39,29.52,10.0,SSW,13.8,19.6,N/A,,Clear,200,2013-01-29 20:53:00
3:53 PM,86.0,50.0,29,29.49,9.0,SSW,20.7,31.1,N/A,,Clear,200,2013-01-29 21:53:00
4:53 PM,84.9,50.0,30,29.48,10.0,South,15.0,21.9,N/A,,Clear,170,2013-01-29 22:53:00
5:53 PM,75.0,46.9,37,29.54,6.0,NNW,25.3,52.9,N/A,,Haze,340,2013-01-29 23:53:00
6:05 PM,71.6,44.6,38,29.59,10.0,NNW,25.3,31.1,N/A,,Clear,340,2013-01-30 00:05:00
6:53 PM,68.0,39.9,36,29.63,10.0,NNW,15.0,21.9,N/A,,Clear,330,2013-01-30 00:53:00
7:53 PM,66.9,34.0,30,29.69,10.0,NNW,12.7,-,N/A,,Clear,340,2013-01-30 01:53:00
8:53 PM,64.9,33.1,31,29.71,10.0,NNW,6.9,-,N/A,,Mostly Cloudy,330,2013-01-30 02:53:00
9:53 PM,63.0,32.0,31,29.74,10.0,NNW,6.9,-,N/A,,Partly Cloudy,340,2013-01-30 03:53:00
10:53 PM,61.0,27.0,27,29.78,10.0,North,6.9,-,N/A,,Clear,350,2013-01-30 04:53:00
11:53 PM,59.0,24.1,26,29.82,10.0,NNW,9.2,-,N/A,,Overcast,340,2013-01-30 05:53:00